Regional Weather Roundup
Issued by NWS Wakefield, VA

Home | Current Version | Previous Version | Text Only | Print | Product List | Glossary Off
Versions: 1 2 3 4 5 6 7 8 9 10 11 12 13 14 15 16 17 18 19 20 21 22 23 24 25 26 27

000
ASUS41 KAKQ 240010
RWRAKQ

REGIONAL WEATHER ROUNDUP
NATIONAL WEATHER SERVICE WAKEFIELD VA
800 PM EDT THU OCT 23 2014

Note: "fair" indicates few or no clouds below 12,000 feet with no
significant weather and/or obstructions to visibility. * = Denotes
station may not report precipitation (e.g., rain,snow,etc.),
thunder or fog.

VAZ042-051-052>054-056-240100-
NORTHERN VIRGINIA

CITY           SKY/WX    TMP DP  RH WIND       PRES   REMARKS
WASH NATIONAL  MOCLDY    66  43  43 NW10      29.88R
DULLES         CLOUDY    62  42  47 NW12      29.89R
FORT BELVOIR   CLOUDY    63  45  51 W9        29.89R
QUANTICO       CLOUDY    61  45  55 NW9       29.90S
FREDERICKSBRG* MOCLDY    61  45  56 W8        29.91R
STAFFORD*      CLOUDY    58  43  57 W5        29.95R
WARRENTON      MOCLDY    60  50  69 W8        29.91S
CULPEPER*      CLEAR     61  45  55 NW7       29.94R
MANASSAS*      CLOUDY    63  45  51 NW10      29.90R
LEESBURG*      CLOUDY    63  45  51 NW21      29.90R
WINCHESTER     PTCLDY    59  37  44 NW18G24   29.94S
FRONT ROYAL*   PTCLDY    57  43  58 NW8       29.95S
LURAY*         MOCLDY    55  45  67 W5        29.99R
$$

VAZ048-049-060>072-079>083-240100-
CENTRAL AND SOUTH CENTRAL VIRGINIA...AND NORTH CENTRAL NORTH CAROLINA

CITY           SKY/WX    TMP DP  RH WIND       PRES   REMARKS
RICHMOND       PTCLDY    58  44  60 NW7       29.91S
CHESTERFIELD*    N/A    N/A N/A N/A MISG        N/A
PETERSBURG*    CLEAR     53  44  72 W3        29.94R
HANOVER        CLEAR     54  45  71 NW6       29.94R
TAPPAHANNOCK*  PTCLDY    57  42  57 W6        29.90R
CHARLOTTSVILLE CLEAR     58  41  53 NW10G20   29.96R
ORANGE*        CLEAR     59  43  55 W6        29.96R
LOUISA*        CLEAR     55  45  67 NW3       29.93R
FARMVILLE*     CLEAR     59  41  51 NW5       29.94R
CREWE*         CLEAR     58  43  56 NW5       29.94R
FORT PICKETT*  CLEAR     56  45  68 N6        29.94R
LUNENBURG*     CLEAR     58  47  65 CALM      29.94R
SOUTH HILL*    CLEAR     54  48  82 CALM      29.99R
LAWRENCEVILLE* CLEAR     54  48  81 N3        29.93R
ROANOKE RAPIDS CLEAR     54  48  82 W3        29.93R
RALEIGH        PTCLDY    61  43  51 NW5       29.97R
$$

VAZ088>098-240100-
SOUTHEAST VIRGINIA

CITY           SKY/WX    TMP DP  RH WIND       PRES   REMARKS
NORFOLK        PTCLDY    62  45  53 N8G18     29.89R
VIRGINIA BEACH PTCLDY    63  46  54 NW13      29.88R
NORFOLK NAVAL  PTCLDY    64  46  52 NW12      29.91R
WEST POINT*    CLEAR     60  46  58 W5        29.91S
NEWPORT NEWS   CLOUDY    63  46  54 NW6       29.90R
LANGLEY AFB    CLOUDY    61  47  59 W8        29.90R
FORT EUSTIS    MOCLDY    61  44  52 NW9       29.89R
WILLIAMSBURG*  CLEAR     61  48  63 NW7       29.91R
HR EXEC AP*    CLEAR     57  46  67 N3        29.92S
FRANKLIN*      CLEAR     55  50  82 N3        29.92R
WAKEFIELD      CLEAR     53  48  83 CALM      29.92R
$$

VAZ020-022-025-037-045-240100-
WEST CENTRAL AND SOUTHWEST VIRGINIA

CITY           SKY/WX    TMP DP  RH WIND       PRES   REMARKS
STAUNTON*      CLEAR     54  40  58 NW6       30.02S
HOT SPRINGS VA MOCLDY    40  38  93 NW18G26   30.01R
LYNCHBURG      CLEAR     55  39  54 VRB3      30.00R
DANVILLE       CLEAR     59  41  51 NW14      29.99R
SOUTH BOSTON*  NOT AVBL
MARTINSVILLE   CLEAR     55  41  59 NW6       30.04R
ROANOKE        CLEAR     52  39  61 N3        30.06R
BLACKSBURG     CLEAR     46  43  87 W3        30.09R
DUBLIN*        CLEAR     49  42  75 NW5       30.11R
MARION*        CLEAR     45  39  79 W9        30.15R
HILLSVILLE*    PTCLDY    46  39  76 NW9       30.09S
RICHLANDS*     CLOUDY    48  41  76 CALM      30.14S
WISE*          CLEAR     43  37  81 NE5       30.15S
ABINGDON*      CLEAR     47  40  78 CALM      30.14S
$$

MDZ021>025-VAZ099-100-240100-
SOUTHERN MARYLAND AND THE DELMARVA PENINSULA

CITY           SKY/WX    TMP DP  RH WIND       PRES   REMARKS
PATUXENT RIVER CLOUDY    60  44  55 W9        29.86S
BAY BRIDGE APT   N/A     59  45  58 N5        29.87R
LEONARDTOWN    CLOUDY    55  45  67 CALM      29.89S
DOVER          PTCLDY    56  46  69 NW16G26   29.82R
GEORGETOWN     CLOUDY    58  46  64 NW6G17    29.84R
EASTON         CLOUDY    59  50  72 CALM      29.90R
CAMBRIDGE      MOCLDY    61  46  59 N5        29.86R
SALISBURY      MOCLDY    59  47  64 NW16G22   29.84S
OCEAN CITY     CLOUDY    56  47  71 N10       29.83R
WALLOPS ISLAND CLOUDY    60  49  66 N9        29.85R
ACCOMACK*      CLOUDY    61  45  55 NW10G17   29.86R
$$

NCZ012>017-030>032-240100-
EASTERN NORTH CAROLINA

CITY           SKY/WX    TMP DP  RH WIND       PRES   REMARKS
ELIZABETH CITY CLEAR     58  48  69 W8        29.90R
AHOSKIE*       CLEAR     54  49  82 CALM      29.93R
EDENTON*       CLEAR     55  51  86 W3        29.91R
CURRITUCK*     CLEAR     59  47  65 W5        29.90R
KILL DEVIL HLS CLEAR     61  51  70 NW3       29.88R
MANTEO         CLEAR     62  52  71 NW5       29.89S
CAPE HATTERAS  CLEAR     62  51  67 NW8       29.91R
TARBORO*       CLEAR     56  48  73 W5        29.94R
GOLDSBORO      CLEAR     59  54  82 W5        29.93R
WASHINGTON     CLEAR     56  49  78 CALM      29.93S
GREENVILLE     CLEAR     59  50  72 CALM      29.95S
NEW BERN       CLEAR     59  50  72 SW3       29.95R
WILMINGTON     CLEAR     58  48  69 W6        29.96R
$$

VAZ048-240100-
ELSEWHERE

CITY           SKY/WX    TMP DP  RH WIND       PRES   REMARKS
HARRISBURG PA  CLOUDY    60  44  55 N9        29.88R
BALTIMORE      CLOUDY    62  44  51 NW8       29.86R
ANNAPOLIS      CLOUDY    61  47  59 CALM      29.86R
ANDREWS AFB    CLOUDY    62  45  53 NW7       29.87R
WILMINGTON DE  CLOUDY    55  45  68 NW15G24   29.84S
PHILADELPHIA   MOCLDY    55  43  63 NW12      29.84R
WILDWOOD NJ*   MOCLDY    55  43  62 NW12G20   29.82S
ATLANTIC CITY  CLOUDY    53  45  74 NW14G21   29.79R
HENDERSON NC   CLEAR     56  43  63 SW3       29.96R
GREENSBORO     PTCLDY    58  42  55 NW12      30.00R
ROCKY MOUNT    CLEAR     60  46  59 CALM      29.94R
FAYETTEVILLE   CLEAR     59  49  69 W6        29.97R
CHARLOTTE      PTCLDY    55  41  59 W3        30.02R
$$

VAZ100-240100-
MARINE

STATION/POSITION TIME  TEMP    WIND        PRES    WAVE   SWELL
                       AIR SEA DIR/SP/G            HT/PER HT/PER
                 (UTC) (F)     (DEG/KT/KT) (MB)    (FT/S) (FT/S)
44066 TX TWR #4  0000   58 66  330/ 23/ 27 1003.2R  10/ 7
CAPE MAY NJ      0000   57 63  330/ 19/ 27 1009.2S
LEWES DE         0000   58 58  340/ 25/ 29 1009.5F
15NM E FENWICK I 0000   59 65  320/ 25/ 31 1008.2R   7/ 6   2/14
OCEAN-CITY-INLET 0000   58 62  350/ 15/ 22 1009.5R
WACHAPREAGUE VA  0000   61 60  300/  2/ 10 1010.9S
THOMAS POINT MD  0000   61 62  340/  4/  5 1012.4R
GOOSES REEF MD   0000   62     330/ 10/ 12 1011.8R
COVE POINT MD    0000   61     330/ 11/ 13 1011.0S
SOLOMONS ISLAND  0000      64                N/A
BISHOPS HEAD MD  0000   60 56  320/ 12/ 14 1010.5S
PINEY POINT MD   0000          310/ 12/ 14   N/A
POTOMAC MD       0000   62     330/ 14/ 17 1010.9R
CAMBRIDGE MD     0000   60 60   20/  7/ 10 1010.9S
LEWISETTA VA     0000   60 60  280/  6/  7 1011.2F
RAPPAHANNOCK LGT 0000          320/ 23/ 26 1011.5F
STINGRAY PT      0000   63     330/ 14/ 17 1012.2F
YORK RVR RNG VA  0000   62     330/ 13/ 15 1011.5R
YORKTOWN VA      0000   63 65  300/ 12/ 15 1011.8R
JAMESTOWN VA     0000   61     340/ 12/ 16   N/A
DOMINION TERM VA 0000   63     340/ 13/ 19 1012.3S
KIPTOPEKE VA     0000      65  340/ 20/ 24   N/A
CHES BAY BRIDGE  0000   63 65  300/ 21/ 25 1011.5S
CHESAPEAKE LGHT  2300   64     310/ 22/ 24 1011.6R
WILLOUBY STN VA  0000   62     320/ 12/ 14 1010.8F
S CRANEY ISL VA  0000          300/  9/ 12 1012.0S
CAPE HENRY BUOY  0000      68                N/A     5/ 4
1ST LANDING BUOY 0000   64     320/ 23/ 29 1011.4S
CAPE CHARLES BUO 0000      67                N/A     4/ 8   2/ 8
64NM E OF VA BCH 0000   65 67  320/ 25/ 31 1009.7R   8/ 6   3/ 9
DUCK PIER NC     0000   62 67  280/  7/  8 1011.1R
44100 DUCK FRF   0000      68                N/A     5/ 8
44056 DUCK FRF   0000                        N/A     4/ 8
OREGON INLET NC  0000   61 64  270/  4/  7 1011.9R
HATTERAS NC      0000   65 63  300/ 12/ 14 1013.1R
DIAMOND SHLS NC  0000   65     310/ 16/ 21 1012.7R   5/ 5   2/ 9
CAPE LOOKOUT NC  2300   66     290/ 15/ 17 1013.0R
$$



USA.gov is the U.S. government's official web portal to all federal, state and local government web resources and services.